Theta_e
323 321 321 320 319 320 321 321 321 321 321 321 321 321 321 321 321 321 321 320 320 319 320 320 321 322 319 315 317 335 348 338 320 316 317 316 311 310 309 319 329 325 323 328 332 329 330
321 320 320 319 318 318 319 320 320 320 320 321 321 321 321 321 320 321 321 320 319 319 320 320 321 322 315 311 326 334 328 319 314 314 314 315 311 315 314 324 325 324 326 326 327 328 329
319 319 319 319 318 318 317 317 317 318 319 320 320 320 320 320 320 320 319 318 318 319 320 321 321 321 319 319 321 326 318 312 312 313 311 314 315 312 314 317 330 327 323 325 327 329 325
318 318 318 318 318 318 317 317 317 317 318 319 319 320 320 319 319 318 318 317 317 319 322 323 321 320 315 324 321 321 318 315 315 312 310 313 314 312 310 318 324 325 324 316 325 328 327
318 318 318 318 318 317 317 317 317 316 317 319 319 319 318 318 317 317 316 316 318 322 325 322 317 316 315 324 313 319 319 316 312 309 310 317 311 306 309 306 309 318 312 312 314 329 323
320 320 318 317 317 317 316 316 316 316 318 319 318 316 317 317 316 315 315 316 323 320 324 325 324 314 319 313 315 319 319 318 311 308 308 306 303 300 303 301 300 307 311 311 313 323 322
320 319 319 318 317 317 316 316 316 317 318 317 316 316 316 316 315 314 312 316 316 314 318 315 314 316 314 312 314 314 319 312 309 305 298 303 296 296 302 305 314 315 312 310 315 325 320
320 319 319 319 319 318 317 316 316 316 316 317 315 315 315 315 314 313 310 314 316 316 309 321 319 314 314 314 309 313 314 307 303 299 302 298 295 304 308 314 317 316 314 313 314 320 319
320 319 319 318 318 319 318 317 317 316 316 316 316 316 315 314 313 312 314 318 324 319 308 315 315 314 312 313 310 308 310 307 304 300 301 297 303 309 308 308 313 315 309 309 308 313 321
321 320 319 318 318 318 318 318 318 317 317 316 316 316 315 312 310 313 315 324 322 319 303 310 309 312 314 314 307 316 315 311 306 302 304 302 310 310 307 307 306 302 318 315 312 313 305
320 320 320 319 318 317 317 317 317 317 316 316 316 315 313 311 307 309 318 321 321 316 293 311 309 318 313 307 308 309 316 310 304 306 302 301 306 306 304 307 309 304 316 315 314 308 307
320 320 320 319 319 318 317 317 317 316 316 316 315 314 312 312 311 313 318 318 317 300 295 305 311 309 307 308 309 311 309 309 311 307 304 305 309 306 305 310 309 311 307 309 306 303 295
321 320 320 319 318 317 317 316 316 316 315 314 313 311 310 314 310 315 315 315 300 296 310 304 305 308 307 304 306 307 305 302 299 293 295 302 303 305 308 302 306 303 296 290 291 296 295
321 320 319 319 318 317 317 317 316 315 314 313 310 309 311 313 313 314 316 306 296 306 307 308 306 306 304 307 305 306 304 300 304 301 298 297 297 302 306 301 298 300 296 290 289 292 297
322 321 320 319 318 317 316 316 315 315 314 312 309 315 313 315 315 316 308 299 300 308 308 306 305 303 302 307 305 305 303 303 305 304 296 298 299 307 307 308 304 300 298 305 298 299 298
322 321 320 319 318 317 316 316 315 314 313 311 310 312 310 321 319 311 304 299 305 310 311 306 299 305 303 305 303 301 303 307 307 309 304 301 296 306 308 309 308 304 306 296 298 292 292
323 322 320 319 318 317 317 316 315 314 312 311 312 308 316 319 317 309 301 304 307 312 312 306 302 302 303 308 306 304 307 309 310 309 306 305 300 301 306 300 300 300 299 300 301 298 294
323 322 321 319 318 317 317 316 315 312 311 314 312 304 318 320 306 307 303 307 306 310 312 307 306 304 303 305 305 303 306 308 312 308 302 305 299 295 300 308 311 306 301 299 294 295 300
323 323 322 320 318 318 317 316 314 312 312 309 308 309 318 318 302 303 306 307 310 309 311 307 304 307 306 303 301 305 309 312 312 309 303 303 299 291 296 300 307 302 305 301 303 301 298
323 323 322 321 319 318 317 316 314 312 312 311 309 305 310 315 313 308 305 304 306 313 312 310 307 308 306 302 303 303 307 311 311 310 319 308 296 292 289 295 300 300 305 305 302 295 298
323 323 323 322 319 318 317 316 315 312 312 310 311 307 312 304 308 310 309 307 304 305 312 310 309 307 305 299 303 303 306 307 310 316 306 298 292 296 299 302 301 301 301 301 298 300 297
321 322 322 322 319 318 317 317 315 313 311 311 307 310 312 309 309 308 307 305 305 307 312 306 306 307 307 302 304 305 306 305 303 306 305 303 295 298 298 303 301 299 302 301 299 300 303
320 321 322 321 320 318 318 317 316 313 312 314 316 318 313 307 307 305 305 308 307 308 311 313 310 307 306 308 309 307 306 304 302 302 303 303 300 297 293 300 300 294 299 302 304 307 306
319 320 321 321 319 318 317 317 316 315 314 312 314 313 310 304 306 306 308 309 308 311 308 311 315 311 311 314 312 308 305 303 305 303 304 300 298 297 292 295 289 298 310 311 308 309 310
318 319 320 320 319 317 317 316 316 316 315 312 314 313 311 304 308 308 308 308 311 312 313 312 313 315 315 312 304 300 300 301 305 306 301 302 301 294 291 291 297 302 308 307 304 306 315
318 319 319 319 317 317 316 316 315 316 315 312 312 316 313 306 304 310 307 308 306 308 311 314 317 315 315 307 303 298 295 301 301 304 303 302 304 298 294 291 289 302 310 312 309 300 315
318 318 319 318 317 317 317 316 315 315 315 312 310 314 314 307 310 310 305 306 312 310 308 314 314 315 313 305 300 298 297 307 298 299 297 298 298 296 295 293 298 310 312 313 297 302 317
317 318 317 317 316 317 316 315 315 315 315 312 310 314 316 310 310 312 312 308 309 310 306 315 312 312 309 302 301 301 300 304 301 304 300 299 297 297 298 296 293 314 312 303 309 313 312
317 317 317 316 316 316 315 314 314 314 314 314 307 318 320 314 310 316 314 315 314 313 310 315 314 312 313 307 305 306 303 304 303 297 307 298 301 298 299 301 309 313 310 314 314 312 311
Wind_Speed
14 13 13 14 14 14 14 13 14 14 14 14 14 14 14 14 14 15 15 14 14 13 12 11 10 10 6 4 9 5 7 6 5 3 6 12 11 9 9 4 7 12 15 8 10 10 10
15 14 14 14 14 14 15 15 15 15 15 15 15 15 14 14 15 15 15 14 13 13 12 9 8 7 3 5 6 12 9 6 7 7 9 13 10 12 10 5 10 8 14 4 6 12 5
14 14 14 14 14 15 15 15 15 16 16 16 16 16 15 15 17 17 16 17 15 13 10 8 5 5 5 11 1 8 10 8 9 10 11 11 10 7 10 4 14 16 11 3 9 5 4
15 15 15 15 15 15 15 15 16 16 17 17 17 17 17 17 18 18 18 17 16 12 9 6 3 4 8 3 5 4 9 10 9 8 6 10 9 7 4 4 9 8 5 5 6 2 3
15 15 15 15 15 15 16 16 16 16 17 17 18 18 18 18 18 17 19 20 16 9 6 4 3 4 8 1 3 10 7 7 8 6 9 10 5 3 8 6 1 4 7 6 3 4 4
15 15 16 16 16 16 16 16 17 16 17 18 19 20 19 18 17 17 23 13 3 11 5 8 7 6 7 3 5 6 1 5 4 6 6 5 3 4 5 2 5 7 9 6 6 7 4
15 16 15 16 16 16 17 17 17 18 18 20 21 21 21 20 18 15 13 3 1 0 5 10 8 6 6 6 3 4 6 8 6 4 6 8 3 7 14 11 3 12 10 6 7 6 3
15 14 15 15 16 16 18 18 18 19 20 21 22 22 23 22 21 14 4 4 7 6 7 14 13 4 3 10 7 7 5 5 5 8 9 3 8 15 14 7 13 14 12 5 4 6 6
13 14 14 15 16 15 15 18 17 19 20 19 19 19 21 24 25 4 6 10 13 8 4 12 9 7 4 5 5 8 7 7 8 8 9 9 11 16 14 2 10 16 10 7 8 4 9
12 12 13 16 18 16 16 16 17 18 19 19 19 20 20 28 3 7 6 13 7 6 3 7 7 5 6 9 3 10 10 10 7 9 6 7 6 2 7 7 7 7 20 18 15 10 7
12 12 12 13 14 17 16 16 17 18 19 20 20 20 19 10 9 5 9 14 9 4 4 14 5 6 3 4 10 5 6 7 9 11 2 8 1 5 4 8 7 5 8 4 8 10 5
13 13 13 13 14 15 16 17 18 19 20 21 20 18 20 3 4 11 13 15 6 1 7 6 8 8 9 8 8 5 4 4 8 9 3 8 4 2 6 9 7 7 6 3 2 1 3
11 12 13 14 15 15 16 17 19 20 21 22 23 17 9 7 6 9 13 5 3 4 4 8 8 7 9 8 8 9 9 8 5 1 6 9 11 4 4 6 5 4 6 5 6 6 3
11 11 13 13 14 16 17 18 19 21 23 24 26 25 9 8 8 7 6 4 5 10 13 6 1 2 8 8 8 8 6 7 10 5 6 5 2 8 6 5 5 5 8 6 4 3 3
12 12 12 13 14 15 17 19 20 22 24 24 30 2 4 7 12 4 1 4 6 3 10 4 7 2 6 6 1 2 8 4 4 7 5 6 8 7 10 5 7 8 3 1 6 3 1
12 12 13 13 13 15 17 19 21 23 27 24 5 5 9 9 12 4 2 7 9 15 18 7 6 5 1 5 6 6 5 5 4 5 4 6 6 8 2 5 5 4 2 6 5 3 1
12 11 12 13 12 13 16 18 20 23 28 23 3 4 7 12 10 3 6 7 13 18 9 1 7 10 9 2 5 1 4 5 4 6 6 4 2 10 6 4 8 2 2 4 8 3 5
12 12 11 11 12 12 14 15 17 20 28 7 5 4 2 8 4 4 9 12 15 23 5 1 4 6 8 8 4 1 3 6 8 8 5 7 3 5 9 7 8 7 0 1 5 5 3
13 13 12 11 11 11 13 13 14 15 14 6 5 6 8 6 5 7 8 20 21 22 13 7 5 5 6 6 5 6 8 9 8 6 3 5 4 5 10 9 7 3 6 5 7 5 6
13 13 13 11 10 10 11 12 12 12 10 3 4 5 5 4 7 11 12 15 19 20 13 3 5 4 2 1 5 4 5 7 9 7 7 4 2 4 5 7 5 5 8 8 2 2 6
14 13 13 12 9 9 10 12 12 12 11 3 4 5 10 5 6 11 13 14 17 19 7 6 3 6 3 3 6 6 6 6 8 8 4 4 2 5 7 9 10 9 10 11 8 7 6
15 14 13 13 9 8 9 10 12 14 17 3 3 5 9 11 10 13 7 14 16 18 10 9 7 8 6 4 4 5 6 4 7 6 7 4 4 4 5 8 9 10 9 9 10 8 6
15 15 15 13 10 8 7 9 9 12 11 4 5 5 4 7 9 9 9 13 13 13 13 14 12 8 7 7 6 7 7 5 5 1 5 3 4 4 4 9 11 7 9 8 6 10 7
15 14 14 14 10 9 6 6 7 8 7 3 4 4 3 7 9 11 18 21 19 13 10 13 6 6 8 12 8 7 4 3 6 7 4 1 1 2 2 6 7 7 9 15 11 13 10
15 14 13 13 10 9 5 5 6 6 6 3 4 3 3 6 8 16 17 20 20 18 4 5 10 2 4 7 4 3 1 3 7 6 5 3 4 2 2 4 9 8 6 4 6 7 15
15 14 14 13 10 8 5 4 6 9 8 4 6 4 5 4 7 11 17 17 13 10 9 5 9 4 1 3 5 6 5 6 4 2 7 4 6 6 1 2 4 3 7 6 6 3 9
14 14 12 12 11 9 6 4 5 8 6 3 6 5 4 5 10 10 9 11 11 7 6 8 9 9 4 2 3 4 6 4 4 4 3 2 1 5 5 5 4 4 5 2 1 4 3
12 11 11 11 10 9 6 4 5 7 7 4 8 9 6 4 13 13 16 12 12 6 5 4 5 3 4 2 4 4 3 3 1 2 1 5 6 4 3 5 2 3 5 4 7 3 2
11 9 10 9 8 7 5 3 4 6 6 4 5 7 6 3 8 18 21 19 16 13 6 2 4 3 1 4 4 3 1 4 3 3 2 2 5 4 6 5 5 4 5 4 7 4 2
Wind_Direction
17 18 17 13 9 5 3 0 358 354 350 346 341 337 333 329 324 320 316 313 313 312 309 310 312 317 307 238 246 152 175 186 207 192 244 260 273 267 276 279 88 104 110 310 125 125 98
15 14 13 12 4 360 356 358 356 353 349 345 340 336 331 326 323 321 316 311 312 310 307 304 302 309 246 273 101 146 186 159 247 197 250 256 263 287 293 37 74 169 119 250 151 93 57
14 11 11 8 3 0 355 353 351 348 345 342 338 334 330 326 326 323 321 316 315 309 303 295 289 269 263 257 38 158 162 193 213 224 248 276 277 317 346 18 135 125 92 243 116 74 69
15 12 9 8 5 2 356 353 350 346 341 337 334 331 329 328 326 324 317 313 309 302 292 269 242 270 260 191 352 231 209 217 229 250 267 298 351 354 292 300 128 83 80 128 331 329 315
14 9 5 4 2 359 357 353 350 348 341 334 334 332 329 327 324 322 315 308 294 289 267 156 201 234 269 136 226 249 231 243 190 237 279 282 8 264 306 282 137 152 121 114 264 244 145
6 4 5 4 2 359 355 351 347 343 337 337 338 335 327 325 326 325 316 283 286 313 206 202 258 304 255 263 186 225 219 313 245 212 244 247 249 243 293 233 197 182 129 118 169 166 168
6 6 3 4 2 359 355 350 346 340 337 342 338 334 329 324 324 331 339 18 358 280 248 221 194 225 120 107 112 263 202 227 251 206 221 220 171 236 242 245 146 90 112 135 31 140 121
4 2 1 0 359 357 355 351 347 343 339 341 339 335 330 323 318 321 279 249 304 255 305 227 253 213 279 174 170 179 180 235 191 227 230 248 224 244 257 200 122 121 118 113 6 308 186
357 357 354 358 354 350 345 350 346 344 339 332 330 328 327 322 314 280 215 255 288 340 285 294 221 154 150 233 203 177 187 230 223 239 240 207 244 233 249 201 148 146 145 203 166 210 239
351 350 350 354 352 349 345 341 333 331 330 329 326 324 328 328 328 335 263 240 256 339 303 234 197 160 204 218 131 158 210 227 247 239 223 253 298 86 11 334 351 140 179 184 166 164 205
345 345 346 346 344 348 341 335 333 329 327 327 323 322 323 324 307 291 290 323 320 355 293 161 115 153 172 213 143 202 242 317 281 305 2 252 170 136 287 277 254 254 198 187 187 188 167
340 339 339 339 339 338 336 333 332 330 326 322 318 319 331 122 211 249 298 291 309 286 240 137 140 193 208 220 159 140 196 235 258 285 195 268 293 351 244 248 271 318 356 315 349 201 354
336 334 333 334 336 335 333 333 331 330 326 321 315 308 303 300 240 340 326 320 312 222 273 144 171 176 208 171 148 175 195 226 219 207 256 249 238 186 278 334 354 356 12 334 350 36 243
327 330 329 331 332 332 332 333 332 330 327 323 315 310 228 218 242 301 304 329 253 267 273 103 43 125 266 172 160 183 208 222 235 237 279 259 257 152 187 206 250 257 180 170 205 161 260
315 320 325 327 328 330 332 331 332 331 328 328 314 181 230 229 216 240 322 244 238 230 334 58 164 205 269 131 290 220 229 206 85 55 24 353 14 169 160 174 161 278 340 173 115 359 76
307 312 319 322 327 330 332 333 334 333 330 333 313 274 243 217 161 174 212 247 275 299 295 30 320 234 320 148 183 220 214 46 77 70 25 310 344 295 173 103 285 254 233 29 11 114 339
297 300 308 315 321 326 331 335 336 337 332 330 250 274 230 194 158 166 223 240 265 270 263 199 307 315 319 120 242 318 151 101 112 74 37 336 356 297 342 171 225 300 136 88 98 95 160
287 290 294 303 312 321 328 336 339 342 338 1 306 287 141 139 160 206 238 251 266 276 248 137 308 303 306 329 334 172 78 87 60 53 20 7 282 304 284 320 8 118 266 17 135 215 239
280 281 284 294 304 315 324 332 340 346 11 319 309 277 283 154 215 235 244 246 259 270 259 166 214 223 284 7 4 347 107 121 92 78 91 349 340 349 334 346 21 19 334 315 113 119 179
273 271 274 281 290 306 319 325 333 338 341 315 285 292 249 193 230 250 260 253 250 253 253 224 196 270 147 301 296 312 353 128 120 116 125 99 266 210 230 267 319 320 309 302 243 156 162
278 274 267 270 279 294 310 319 327 328 324 283 240 267 3 299 276 266 238 268 277 285 207 224 311 257 164 251 275 209 227 133 130 149 128 128 241 289 327 337 329 317 315 310 308 235 150
280 274 269 261 262 279 299 316 327 326 331 228 285 346 341 294 301 314 279 237 257 275 284 196 184 252 223 220 251 313 56 56 138 225 178 184 256 291 295 294 312 318 307 279 261 290 219
281 274 265 249 252 264 287 311 329 340 332 302 350 329 312 290 306 307 297 309 241 262 283 297 180 202 241 219 216 101 77 43 330 140 210 154 85 46 330 328 328 326 280 328 16 34 28
287 280 261 240 242 251 270 300 328 345 10 303 283 297 286 295 316 300 317 314 306 287 226 274 301 181 189 90 77 70 48 297 270 258 138 136 69 101 262 321 293 244 22 47 42 15 21
286 284 262 232 228 234 256 296 324 328 340 295 300 289 321 298 297 295 341 329 324 323 262 286 250 255 153 110 89 87 333 272 268 275 184 198 143 130 131 249 273 312 28 41 73 31 78
281 278 259 218 216 224 233 276 330 325 334 304 272 261 264 296 245 316 316 303 302 340 348 297 305 294 327 120 121 182 208 231 198 223 202 190 129 124 260 277 269 84 56 10 355 69 100
283 277 234 206 209 219 218 252 289 300 329 317 283 295 279 275 270 281 303 322 314 324 296 41 336 343 306 169 150 171 218 182 163 229 137 149 231 188 225 220 236 359 12 339 278 242 2
283 266 211 206 210 211 203 237 293 308 338 349 281 282 257 273 288 265 305 313 330 343 4 330 328 270 335 237 151 221 158 103 222 331 114 173 152 215 233 232 196 357 7 99 207 226 322
281 247 202 197 205 198 188 229 283 304 315 345 279 335 333 242 281 307 282 272 261 265 297 180 252 290 27 17 356 95 111 113 162 258 12 6 180 201 144 212 205 223 227 125 157 186 248